COSMOS 2251 DEB, 35028

Orbit data source: Space-Track

COSMOS 2251 DEB, 35028 is space debris in LEO originally from a launch on Wed, 16 Jun 1993 UTC launched from the Plesetsk Missile And Space Complex (PKMTR). The debris from Iridium 33, an American commercial communications satellite, has been tracked extensively since its accidental collision with the defunct Russian satellite Cosmos 2251 in 2009. This event, occurring at high speed in low Earth orbit (LEO), generated thousands of pieces of space debris, significantly increasing the risk of further collisions. The Iridium 33 debris cloud has impacted space traffic management and orbital debris mitigation strategies, making it a subject of ongoing study in space situational awareness.

Loading next visibility...
Identifier
35028, 1993-036AGR
Orbit
LEO
Country
Flag of CISCIS
Related business
Manufacturer
Unknown
Mission
Spacecraft
Bus & Motor
Unknown
Mass
Unknown
Launch date (UTC)
1993-06-16 (33 years ago)
Launch vehicle
Unknown
Launch site
Plesetsk Missile And Space Complex (PKMTR)
Object type
Payload
Rocket body
Debris
Shape & HBR
Unknown shape, 0.1 m
Radar Cross Section
Small (<0.1 m²)

Expand to show TLE details & history
Last TLE update: 11 hours ago

TLE from 11 hours ago
0 COSMOS 2251 DEB
1 35028U 93036AGR 26119.94872022  .00000366  00000-0  84850-4 0  9996
2 35028  74.0399   8.6740 0082245 108.3968 267.6144 14.56697386902986
Epoch: 2026-04-29T22:46Z
TLE epoch observation values (Epoch: 2026-04-29T22:46:09.427Z)
Latitude
14.45385°
Longitude
173.43712°
Altitude
708.672 km
Speed
7.501 km/s
True Right ascension
00h 51m 30s
True Declination
14° 22' 13"
Sunlit
Object was in daylight at epoch
Visualization orbit readout
Latitude
Unknown
Longitude
Unknown
Altitude
Unknown
Speed
Unknown
Apparent Right ascension
Unknown
Apparent Declination
Unknown
Sunlit
N/A
Visualization observer readout
Local Sidereal Time
17:29:31
Azimuth
Unknown
Elevation
Unknown
Doppler factor
Unknown
Orbital elements
Apogee altitude
759.685 km
Perigee altitude
643.232 km
Semi-major axis
7,079.596 km
Eccentricity
0.00822
Inclination
74.0399°
RAAN
8.674°
Arg. of periapsis
108.3968°
True anomaly
266.6732°
Mean anomaly
267.6144°
Eccentric anomaly
267.14376°
Mean motion
3.6436 °/min
Orbital period
98.8 mins
BSTAR
0.00008485
Loading maneuver chart data...
Computing Atmospheric mass density...

Documentation

Showing up to 5 results
|